sat.trackr.live / text

‹ back to catalog

STARLINK-33880

NORAD 63686 · 2025-085Y

PAYLOAD ACTIVE UNKNOWN

§ Identity

Operator
Country
US
Launch date
2025-04-28
Launch site
AFETR
Launch vehicle
Mass (kg)
RCS (m²)

Purposes: comms

External: N2YO · Heavens-Above · Gunter

§ Orbital elements

Epoch: 2026-09-20T13:55:55.215552Z

Period
94.27 min
Inclination
42.9970°
Eccentricity
0.0000733
Mean motion
15.27599913 rev/d
Perigee alt
482.5 km
Apogee alt
483.5 km
Semi-major
6,861.1 km
B*
1.8218e-4
RAAN
10.4701°
Arg perigee
236.0247°
Mean anomaly
124.0535°
Rev number
7,878

§ Raw data

STARLINK-338801 63686U 25085Y   26263.58050018  .00004758  00000+0  18218-3 0  99912 63686  42.9970  10.4701 0000733 236.0247 124.0535 15.27599913 78783

JSON: /api/v1/satellites/63686 · /tle

For live sub-satellite position, see the globe view (requires WebGL).

§ Visibility from observer

Set your observer location to see the next 7 days of passes ≥ 10°. The values pass through the URL so the page stays shareable.

No JS? Fill the form by hand. The geolocation button needs JavaScript.